www.pogodaiklimat.ru

Погода и климат >> Архив погоды >> Финляндия >> Мультия Кархила


ПОГОДА в Мультия Кархила

  • Прогноз погоды в Мультия Кархила
  • Монитор погоды в Мультия Кархила

АРХИВ ПОГОДЫ в Мультия Кархила

Время (UTC), дата Ветер
(напр.,м/с)
 
Видим.   Явления Облачность Т
(С)
Тd
(С)
f
(%)
Тe
(С)
Тes
(С)
Комфортность P
(гПа)
Po
(гПа)
Тmin
(С)
Tmax
(С)
R
(мм)
R24
(мм)
S
(см)
12 10.08 СЗ 3 н/о н/о +20.1 +8.2 46 +21 +21 комфорт 1012.1 985.5
15 10.08 З 3 н/о н/о +22.0 +7.0 38 +23 +23 комфорт 1011.3 984.9
18 10.08 В 2 н/о н/о +16.4 +10.0 66 +17 +17 1011.3 984.5 +15.1 +22.1
21 10.08 ЮВ 3 н/о н/о +12.2 +8.6 79 +11 +11 1011.5 984.2
00 11.08 ЮВ 3 н/о н/о +11.5 +9.6 88 +10 +10 1011.2 983.9
03 11.08 Ю 3 н/о н/о +11.1 +10.1 94 +9 +9 1011.2 983.9
06 11.08 В 3 н/о н/о +12.7 +12.7 100 +11 +11 1010.2 983.0 +10.5 +16.4 9
09 11.08 В 4 н/о н/о +16.6 +15.6 94 +16 +16 1009.4 982.5
12 11.08 ЮВ 5 н/о н/о +17.5 +12.2 71 +17 +17 1008.7 982.0
15 11.08 В 3 н/о н/о +16.4 +12.6 78 +16 +16 1008.1 981.3
18 11.08 ЮВ 4 н/о н/о +13.7 +13.7 100 +12 +12 1007.8 980.8 +12.7 +19.1 0.8
21 11.08 ЮВ 3 н/о н/о +14.1 +14.1 100 +13 +13 1007.7 980.7
00 12.08 ЮВ 2 н/о н/о +14.3 +14.3 100 +14 +14 1007.5 980.5
03 12.08 Ю 2 н/о н/о +14.8 +14.8 100 +14 +14 1007.4 980.4
06 12.08 Ю 3 н/о н/о +15.3 +15.3 100 +15 +15 1007.5 980.6 +13.7 +15.4 8
09 12.08 Ю 3 н/о н/о +16.3 +16.3 100 +16 +16 1007.7 980.9
12 12.08 Ю 5 н/о н/о +18.2 +14.0 76 +18 +18 1007.1 980.5
15 12.08 Ю 3 н/о н/о +18.6 +11.5 63 +19 +19 1006.4 979.9
18 12.08 В 2 н/о н/о +14.9 +13.9 94 +15 +15 1006.7 979.8 +14.7 +19.3 8
21 12.08 ЮВ 3 н/о н/о +12.5 +12.2 98 +11 +11 1006.7 979.6
00 13.08 ЮВ 3 н/о н/о +11.3 +11.3 100 +9 +9 1006.9 979.7
03 13.08 ЮВ 2 н/о н/о +11.3 +11.3 100 +10 +10 1006.2 979.0
06 13.08 ЮВ 2 н/о н/о +14.8 +14.4 97 +14 +14 1005.5 978.6 +10.8 +15.0
09 13.08 Ю 3 н/о н/о +16.1 +15.6 97 +16 +16 1005.2 978.4
12 13.08 ЮЗ 2 н/о н/о +17.7 +15.5 87 +18 +18 1004.1 977.5
15 13.08 ЮВ 2 н/о н/о +18.5 +14.7 79 +20 +20 1003.3 976.8
18 13.08 СВ 2 н/о н/о +14.1 +14.0 99 +13 +13 1004.1 977.2 +14.1 +19.0 5
21 13.08 ЮЗ 3 н/о н/о +12.0 +12.0 100 +10 +10 1004.6 977.4
00 14.08 Ю 2 н/о н/о +9.3 +9.3 100 +7 +7 1004.8 977.5
03 14.08 ЮВ 3 н/о н/о +9.4 +9.4 100 +7 +7 1004.6 977.2
06 14.08 Ю 2 н/о н/о +12.3 +12.3 100 +11 +11 1004.0 977.0 +8.5 +14.3 0.8
09 14.08 ЮВ 2 н/о н/о +15.8 +15.0 95 +16 +16 1003.3 976.5
12 14.08 Ю 3 н/о н/о +14.1 +13.3 95 +13 +13 1003.8 976.9
15 14.08 ЮЗ 3 н/о н/о +12.7 +10.8 88 +11 +11 1004.0 977.0
18 14.08 ЮЗ 3 н/о н/о +11.4 +10.6 95 +9 +9 1004.3 977.2 +11.4 +15.8 1
21 14.08 ЮЗ 3 н/о н/о +10.6 +10.6 100 +8 +8 1004.6 977.3
00 15.08 ЮЗ 2 н/о н/о +10.4 +10.4 100 +9 +9 1004.5 977.3
03 15.08 ЮЗ 2 н/о н/о +10.1 +10.1 100 +8 +8 1004.2 976.9
06 15.08 ЮЗ 3 н/о н/о +10.9 +10.9 100 +9 +9 1004.0 976.8 +10.1 +11.4 5
09 15.08 ЮЗ 3 н/о н/о +12.6 +11.9 95 +11 +11 1003.7 976.6
12 15.08 ЮЗ 5 н/о н/о +12.2 +11.4 95 +10 +10 1004.7 977.6
15 15.08 З 5 н/о н/о +12.1 +10.2 88 +10 +10 1006.2 979.0
18 15.08 ЮЗ 3 н/о н/о +11.8 +10.1 89 +10 +10 1007.3 980.1 +10.9 +13.1 0.8
21 15.08 ЮЗ 4 н/о н/о +11.8 +9.2 84 +10 +10 1008.5 981.3
00 16.08 ЮЗ 3 н/о н/о +10.5 +10.0 97 +8 +8 1009.8 982.4
03 16.08 ЮЗ 2 н/о н/о +9.4 +9.4 100 +8 +8 1010.5 983.0
06 16.08 ЮЗ 4 н/о н/о +12.5 +10.9 90 +10 +10 1011.3 984.0 +9.2 +12.5
09 16.08 ЮЗ 3 н/о н/о +17.2 +10.3 64 +17 +17 1011.5 984.7
12 16.08 З 2 н/о н/о +18.3 +9.6 57 +19 +19 1011.7 985.0
15 16.08 ЮЗ 4 н/о н/о +19.0 +9.1 53 +20 +20 1011.8 985.2
18 16.08 Ю 2 н/о н/о +15.0 +10.7 75 +15 +15 1012.9 985.8 +12.5 +19.8
21 16.08 ЮВ 2 н/о н/о +13.8 +12.2 90 +13 +13 1013.6 986.4
00 17.08 ЮВ 3 н/о н/о +13.1 +10.7 85 +12 +12 1013.5 986.3
03 17.08 ЮВ 4 н/о н/о +12.5 +11.3 92 +10 +10 1013.1 985.8
06 17.08 Ю 3 н/о н/о +15.0 +12.4 84 +14 +14 1012.6 985.5 +12.5 +15.0
09 17.08 Ю 3 н/о н/о +19.2 +12.7 66 +21 +21 комфорт 1011.8 985.1

 

Местоположение метеостанции Мультия Кархила (Финляндия): широта 62.51 долгота 24.81 высота над уровнем моря 227 м.

В архиве по умолчанию представлена погода в Мультия Кархила за последнюю неделю. Архивные данные за месяц целиком и за предыдущие месяцы, начиная с января 2011 года, Вы можете получить, выбрав интересующий диапазон дат из раскрывающегося списка и нажав кнопку "Ввод!".


*Определитесь, кто Вы:
робот инопланетянин человек

Внимание! Время в таблицах - всемирное. Для получения местного времени необходимо прибавить поправку, которая равна 1 ч.

Смотрите также архив погоды в соседних городах и на ближайших метеорологических станциях:

Погода в Эхтяри (Финляндия) (30 км)
Погода в Ювяскюля (Финляндия) (46 км)
Погода в Виррат Айяннева (Финляндия) (68 км)
Погода в Алаярви Моксы (Финляндия) (70 км)
Погода в Аэропорту Халли (Финляндия) (72 км)
Погода в Халли (Финляндия) (75 км)
Погода в Юупайоки Хююеяля (Финляндия) (78 км)
Погода в Вийтасаари (Финляндия) (83 км)
Погода в Весанто (Финляндия) (94 км)
Погода в Лейвонмаки Савенахо (Финляндия) (97 км)

Пояснения к столбцам:

Ветер - указаны скорость ветра в м/с - средняя за 10 мин, порывы в срок и между сроками (в фигурных скобках) и направление, откуда дует ветер: С - северный, СВ - северо-восточный, В - восточный, ЮВ - юго-восточный, Ю - южный, ЮЗ - юго-западный, З - западный, СЗ - северо-западный.
Видимость - горизонтальная дальность видимости в метрах или километрах. При видимости от 1 до 10 км при отсутствии осадков обычно наблюдается дымка, при ухудшении видимости до 1 км и менее - туман. В сухую погоду видимость может ухудшаться дымом, пылью или мглою.
Явления - указаны атмосферные явления, наблюдавшиеся в срок или в последний час перед сроком; фигурными скобками обозначены явления, наблюдавшиеся между сроками (за 1-3 часа до срока); квадратными скобками обозначены град или гололедные отложения с указанием их диаметра в мм.
Облачность - указаны через наклонную черту общая и нижняя облачность в баллах и высота нижней границы облаков в метрах; квадратными скобками обозначены формы облаков: Ci - перистые, Cs - перисто-слоистые, Cc - перисто-кучевые, Ac - высококучевые, As - высокослоистые, Sc - слоисто-кучевые, Ns - слоисто-дождевые, Cu - кучевые, Cb - кучево-дождевые. Подробнее классификацию облаков см. в Атласе облаков (PDF).
T - Температура воздуха - температура, измеренная на высоте 2 м над землей.
Td - Температура точки росы - температура, при понижении до которой содержащийся в воздухе водяной пар достигнет насыщения.
f - Относительная влажность воздуха - влажноcть воздуха, измеренная на высоте 2 м над землей.
Te - Эффективная температура - температура, которую ощущает одетый по сезону человек в тени. Характеристика душности погоды. При расчете учитывается влияние влажности воздуха и скорости ветра на теплоощущения человека.
Tes - Эффективная температура на солнце - температура, которую ощущает человек, с поправкой на солнечный нагрев. Характеристика знойности погоды. Зависит от высоты солнца над горизонтом, облачности и скорости ветра. Ночью, в пасмурную погоду, а также при ветре 12 м/с и более поправка равна нулю.
P - Атмосферное давление - приведенное к уровню моря атмосферное давление.
Po - Атмосферное давление - измеренное на уровне метеостанции атмосферное давление.
Tmin - Минимальная температура - минимум температуры воздуха на высоте 2 м над землей.
Tmax - Максимальная температура - максимум температуры воздуха на высоте 2 м над землей.
R - Количество осадков - Количество выпавших осадков за период времени, мм. При наведении курсора мыши на число - период времени, за который выпало указанное количество осадков.
R24 - Количество осадков - Количество выпавших осадков за 24 часа, мм.
S - Снежный покров - Высота снежного покрова, см. При наведении курсора мыши на число - состояние снежного покрова и степень покрытия местности в баллах.